Weather History for Ainsworth, NE

Change the Weather History Date:

Thursday, January 2, 2014

  Actual Average Record
Temperature  
Mean Temperature 18 °F -  
Max Temperature 23 °F 35 °F 64 °F (1998)
Min Temperature 12 °F 14 °F -2 °F (1999)
Degree Days  
Heating Degree Days 48    
Moisture  
Dew Point 14 °F    
Average Humidity 85    
Maximum Humidity 96    
Minimum Humidity 71    
Precipitation  
Precipitation 0.00 in - - ()
Sea Level Pressure  
Sea Level Pressure 30.20 in    
Wind  
Wind Speed 5 mph (ESE)    
Max Wind Speed 22 mph    
Max Gust Speed 28 mph    
Visibility 9 miles    
Events Snow    
Averages and records for this station are not official NWS values.
T = Trace of Precipitation, MM = Missing Value Source: NWS Daily Summary

Daily Weather History Graph

Daily Weather History Graph

Search for Another Location

Airport:

Trip Planner

Search our weather history database for the weather conditions in past years. The results will help you decide how hot, cold, wet, or windy it might be!

Date:

Astronomy

Jan. 02, 2014 Rise Set
Actual Time 8:10 AM CST 5:18 PM CST
Civil Twilight 7:38 AM CST 5:50 PM CST
Nautical Twilight 7:02 AM CST 6:25 PM CST
Astronomical Twilight 6:28 AM CST 6:59 PM CST
Moon 8:50 AM CST (1/2) 7:20 PM CST (1/2)
Length of Visible Light 10h 12m
Length of Day
9h 08m
Waxing Crescent, 3% of the Moon is Illuminated
Jan 2
Waxing Crescent
Jan 7
First Quarter
Jan 15
Full
Jan 23
Last Quarter
Jan 30
New

Hourly Weather History & Observations

Time (CST) Temp. Windchill Dew Point Humidity Pressure Visibility Wind Dir Wind Speed Gust Speed Precip Events Conditions
12:15 AM 16.9 °F - 12.7 °F 84% 30.26 in 10.0 mi Calm Calm - N/A   Overcast
12:35 AM 17.2 °F - 12.9 °F 83% 30.25 in 10.0 mi Calm Calm - N/A   Overcast
12:55 AM 17.4 °F - 12.9 °F 83% 30.24 in 10.0 mi Calm Calm - N/A   Overcast
1:15 AM 17.6 °F - 13.1 °F 83% 30.24 in 10.0 mi Calm Calm - N/A   Overcast
1:35 AM 18.0 °F - 13.6 °F 83% 30.23 in 10.0 mi Calm Calm - N/A   Overcast
1:55 AM 18.3 °F - 14.0 °F 83% 30.22 in 10.0 mi Calm Calm - N/A   Overcast
2:15 AM 18.5 °F - 14.7 °F 85% 30.22 in 10.0 mi Calm Calm - N/A   Overcast
2:35 AM 18.3 °F - 14.7 °F 86% 30.21 in 10.0 mi Calm Calm - N/A   Overcast
2:55 AM 18.0 °F - 14.7 °F 87% 30.22 in 10.0 mi Calm Calm - N/A   Overcast
3:15 AM 18.5 °F - 15.6 °F 89% 30.22 in 10.0 mi Calm Calm - N/A   Overcast
3:35 AM 18.5 °F - 15.6 °F 89% 30.21 in 10.0 mi Calm Calm - N/A   Overcast
3:55 AM 18.1 °F 12.9 °F 15.3 °F 88% 30.21 in 10.0 mi ENE 3.5 mph - N/A   Overcast
4:15 AM 16.7 °F 7.2 °F 13.1 °F 86% 30.21 in 10.0 mi East 6.9 mph - N/A   Overcast
4:35 AM 16.0 °F 4.4 °F 12.4 °F 86% 30.21 in 10.0 mi East 9.2 mph - N/A Snow Light Snow
4:55 AM 15.8 °F 8.6 °F 12.2 °F 86% 30.22 in 10.0 mi East 4.6 mph - N/A   Overcast
5:15 AM 15.6 °F 7.0 °F 12.0 °F 86% 30.21 in 10.0 mi East 5.8 mph - N/A   Overcast
5:35 AM 15.4 °F 6.8 °F 12.0 °F 86% 30.22 in 10.0 mi East 5.8 mph - N/A   Overcast
5:55 AM 15.3 °F 7.9 °F 11.8 °F 86% 30.21 in 7.0 mi East 4.6 mph - N/A Snow Light Snow
6:15 AM 15.4 °F 4.6 °F 12.2 °F 87% 30.22 in 7.0 mi East 8.1 mph - N/A   Overcast
6:35 AM 14.7 °F 5.9 °F 11.8 °F 88% 30.22 in 5.0 mi East 5.8 mph - N/A Snow Light Snow
6:55 AM 14.5 °F 4.6 °F 11.5 °F 88% 30.23 in 5.0 mi East 6.9 mph - N/A Snow Light Snow
7:15 AM 14.2 °F 5.3 °F 11.3 °F 88% 30.24 in 5.0 mi ENE 5.8 mph - N/A Snow Light Snow
7:35 AM 13.6 °F 3.5 °F 10.6 °F 88% 30.24 in 7.0 mi ENE 6.9 mph - N/A Snow Light Snow
7:55 AM 12.9 °F 1.6 °F 9.9 °F 88% 30.25 in 7.0 mi East 8.1 mph - N/A Snow Light Snow
8:15 AM 12.6 °F 2.2 °F 9.5 °F 88% 30.25 in 10.0 mi East 6.9 mph - N/A   Overcast
8:35 AM 12.2 °F 4.3 °F 9.3 °F 88% 30.26 in 10.0 mi East 4.6 mph - N/A   Overcast
8:55 AM 12.7 °F 3.6 °F 9.5 °F 87% 30.27 in 7.0 mi East 5.8 mph - N/A Snow Light Snow
9:15 AM 13.1 °F 2.8 °F 10.0 °F 88% 30.28 in 10.0 mi East 6.9 mph - N/A   Overcast
9:35 AM 12.7 °F 3.6 °F 9.5 °F 87% 30.29 in 10.0 mi ENE 5.8 mph - N/A   Overcast
9:55 AM 12.2 °F 6.1 °F 9.0 °F 87% 30.30 in 4.0 mi East 3.5 mph - N/A Snow Light Snow
10:15 AM 12.7 °F 5.0 °F 9.0 °F 85% 30.30 in 10.0 mi East 4.6 mph - N/A Snow Light Snow
10:35 AM 13.1 °F 7.1 °F 9.1 °F 84% 30.30 in 7.0 mi ENE 3.5 mph - N/A Snow Light Snow
10:55 AM 13.6 °F 7.7 °F 9.5 °F 84% 30.30 in 7.0 mi East 3.5 mph - N/A Snow Light Snow
11:15 AM 14.0 °F 8.2 °F 9.7 °F 83% 30.30 in 10.0 mi East 3.5 mph - N/A Snow Light Snow
11:35 AM 14.5 °F 5.7 °F 10.2 °F 83% 30.30 in 10.0 mi East 5.8 mph - N/A Snow Light Snow
11:55 AM 15.1 °F 6.4 °F 10.6 °F 82% 30.28 in 5.0 mi ESE 5.8 mph - N/A Snow Light Snow
12:15 PM 16.5 °F 11.0 °F 11.3 °F 80% 30.27 in 10.0 mi ESE 3.5 mph - N/A   Scattered Clouds
12:35 PM 17.2 °F 8.9 °F 11.5 °F 78% 30.26 in 10.0 mi East 5.8 mph - N/A   Clear
12:55 PM 18.1 °F 10.0 °F 12.2 °F 78% 30.25 in 10.0 mi ESE 5.8 mph - N/A   Clear
1:15 PM 18.5 °F 11.7 °F 12.2 °F 76% 30.24 in 10.0 mi ESE 4.6 mph - N/A   Clear
1:35 PM 19.4 °F 12.8 °F 12.7 °F 75% 30.24 in 10.0 mi ESE 4.6 mph - N/A   Scattered Clouds
1:55 PM 19.8 °F 13.2 °F 12.9 °F 75% 30.24 in 10.0 mi SE 4.6 mph - N/A   Mostly Cloudy
2:15 PM 20.5 °F 12.8 °F 13.5 °F 74% 30.23 in 10.0 mi SSE 5.8 mph - N/A   Overcast
2:35 PM 21.6 °F 15.3 °F 13.8 °F 72% 30.22 in 10.0 mi SSE 4.6 mph - N/A   Overcast
2:55 PM 22.5 °F 16.3 °F 14.9 °F 73% 30.22 in 10.0 mi SSE 4.6 mph - N/A   Overcast
3:15 PM 23.0 °F 14.7 °F 14.9 °F 71% 30.22 in 10.0 mi SE 6.9 mph - N/A   Mostly Cloudy
3:35 PM 23.7 °F 14.7 °F 15.8 °F 72% 30.22 in 10.0 mi SSE 8.1 mph - N/A   Scattered Clouds
3:55 PM 23.9 °F 13.5 °F 15.8 °F 71% 30.21 in 10.0 mi SSE 10.4 mph - N/A   Scattered Clouds
4:15 PM 23.0 °F 12.4 °F 15.8 °F 74% 30.21 in 10.0 mi SE 10.4 mph - N/A   Clear
4:35 PM 22.5 °F 14.1 °F 15.8 °F 76% 30.21 in 10.0 mi SE 6.9 mph - N/A   Clear
4:55 PM 21.2 °F 10.9 °F 15.4 °F 78% 30.20 in 10.0 mi SE 9.2 mph - N/A   Clear
5:15 PM 19.6 °F 9.7 °F 14.5 °F 81% 30.19 in 10.0 mi SE 8.1 mph - N/A   Clear
5:35 PM 18.5 °F 8.4 °F 14.0 °F 83% 30.19 in 10.0 mi SE 8.1 mph - N/A   Clear
5:55 PM 17.2 °F 7.8 °F 13.6 °F 86% 30.20 in 10.0 mi SE 6.9 mph - N/A   Clear
6:15 PM 16.9 °F 6.4 °F 13.6 °F 87% 30.19 in 10.0 mi SE 8.1 mph - N/A   Clear
6:35 PM 16.7 °F 6.2 °F 13.5 °F 87% 30.17 in 10.0 mi SE 8.1 mph - N/A   Clear
6:55 PM 16.7 °F 3.8 °F 14.0 °F 89% 30.16 in 10.0 mi SSE 11.5 mph - N/A   Clear
7:15 PM 16.9 °F 4.8 °F 14.0 °F 88% 30.15 in 10.0 mi SSE 10.4 mph - N/A   Clear
7:35 PM 17.1 °F 5.8 °F 14.5 °F 90% 30.15 in 10.0 mi SSE 9.2 mph - N/A   Clear
7:55 PM 17.2 °F 3.9 °F 14.9 °F 91% 30.13 in 10.0 mi South 12.7 mph - N/A   Clear
8:15 PM 18.0 °F 3.6 °F 16.5 °F 94% 30.12 in 7.0 mi South 15.0 mph 20.7 mph N/A   Scattered Clouds
8:35 PM 18.5 °F 5.5 °F 17.1 °F 94% 30.11 in 7.0 mi South 12.7 mph - N/A   Clear
8:55 PM 19.2 °F 4.7 °F 17.6 °F 93% 30.10 in 7.0 mi South 16.1 mph 20.7 mph N/A   Clear
9:15 PM 19.6 °F 5.2 °F 18.3 °F 95% 30.09 in 7.0 mi South 16.1 mph 21.9 mph N/A   Scattered Clouds
9:35 PM 20.1 °F 5.4 °F 19.0 °F 96% 30.08 in 7.0 mi South 17.3 mph 23.0 mph N/A   Overcast
9:55 PM 20.3 °F 5.7 °F 19.2 °F 96% 30.08 in 7.0 mi South 17.3 mph - N/A   Scattered Clouds
10:15 PM 20.3 °F 5.7 °F 19.0 °F 95% 30.07 in 7.0 mi South 17.3 mph 20.7 mph N/A   Clear
10:35 PM 20.5 °F 5.5 °F 19.2 °F 95% 30.06 in 7.0 mi South 18.4 mph - N/A   Scattered Clouds
10:55 PM 20.8 °F 4.7 °F 19.4 °F 94% 30.04 in 7.0 mi South 21.9 mph 27.6 mph N/A   Scattered Clouds
11:15 PM 20.3 °F 5.2 °F 19.0 °F 95% 30.03 in 7.0 mi South 18.4 mph 24.2 mph N/A   Clear
11:35 PM 20.8 °F 5.1 °F 19.2 °F 93% 30.01 in 7.0 mi South 20.7 mph 26.5 mph N/A   Scattered Clouds
11:55 PM 21.2 °F 5.2 °F 19.4 °F 93% 30.01 in 10.0 mi South 21.9 mph 27.6 mph N/A   Mostly Cloudy